Hourly Data Report for September 16, 2017

All times are specified in Local Standard Time (LST). Add 1 hour to adjust for Daylight Saving Time where and when it is observed.

ALERT CLIMATE
NUNAVUT

82°30'00.000" N
62°20'00.000" W
65.40 m
2400305
71355
ZLT

Download Data

Hourly Data (September 2017)
Hourly Data Report for September 16, 2017
Temp Definition
°C
Dew Point Temp Definition
°C
Rel Hum Definition
%
Wind Dir Definition
10's deg

Wind Spd Definition
km/h
Visibility Definition
km
Stn Press Definition
kPa
Hmdx Definition


Wind Chill Definition


Weather Definition


TIME
00:00 -7.7 -11.0 77 26 40   99.00   -18 LegendNANA
01:00 -7.9 -11.4 76 27 40   98.98   -18 LegendNANA
02:00 -6.3 -11.4 67 25 35   98.97   -15 LegendNANA
03:00 -6.3 -11.4 67 25 34   98.98   -15 LegendNANA
04:00 -6.4 -10.3 74 25 35   98.88   -15 LegendNANA
05:00 -6.2 -10.2 73 25 32   98.97   -15 LegendNANA
06:00 -6.6 -10.0 76 26 38   98.99   -16 LegendNANA
07:00 -5.7 -10.1 71 25 28   99.04   -14 LegendNANA
08:00 -11.0 -12.6 88 6 10   99.09   -16 LegendNANA
09:00 -11.0 -12.6 88 17 6   99.16   -15 LegendNANA
10:00 -9.6 -11.8 84 10 3   99.18   -11 LegendNANA
11:00 -10.4 -11.9 89 9 8   99.22   -15 LegendNANA
12:00 -11.7 -12.9 91 8 7   99.25   -16 LegendNANA
13:00 -9.4 -12.6 77 12 2   99.27   -11 LegendNANA
14:00 -10.1 -12.4 83 11 2   99.32   -11 LegendNANA
15:00 -11.4 -12.8 90 14 4   99.35   -14 LegendNANA
16:00 -11.3 -13.1 86 14 4   99.41   -14 LegendNANA
17:00 -10.3 -12.2 86 28 4   99.46   -13 LegendNANA
18:00 -9.9 -11.2 90 29 7   99.48   -14 LegendNANA
19:00 -9.0 -10.8 87 29 6   99.51   -12 LegendNANA
20:00 -8.5 -10.1 88 28 7   99.52   -12 LegendNANA
21:00 -8.0 -9.9 86 30 4   99.55   -10 LegendNANA
22:00 -7.3 -9.8 82   0   99.56     LegendNANA
23:00 -7.3 -9.3 86 15 2   99.59   -8 LegendNANA

Notes on Data Quality.

Legend

  • E = Estimated
  • M = Missing
  • NA = Not Available
  • ‡ = Partner data that is not subject to review by the National Climate Archives
Date modified: